QPF
0.01 0.01 0.02 0.03 0.05 0.04 0.02 0.00 0.00 0.00 0.00 0.00 0.00 0.00 0.00 0.00 0.00 0.00 0.00 0.00 0.00 0.00 0.00 0.00 0.00 0.00 0.00 0.00 0.00 0.00 0.00 0.00 0.00 0.00 0.00 0.00 0.00 0.00 0.00 0.00 0.00 0.00 0.00 0.00 0.00 0.00 0.00
0.01 0.01 0.02 0.03 0.05 0.06 0.03 0.00 0.00 0.00 0.00 0.00 0.00 0.00 0.00 0.00 0.00 0.00 0.00 0.00 0.00 0.00 0.00 0.00 0.00 0.00 0.00 0.00 0.00 0.00 0.00 0.00 0.00 0.00 0.00 0.00 0.00 0.00 0.00 0.00 0.00 0.00 0.00 0.00 0.00 0.00 0.00
0.01 0.02 0.02 0.02 0.03 0.07 0.04 0.01 0.00 0.00 0.00 0.00 0.00 0.00 0.00 0.00 0.00 0.00 0.00 0.00 0.00 0.00 0.00 0.00 0.00 0.00 0.00 0.00 0.00 0.00 0.00 0.00 0.00 0.00 0.00 0.00 0.00 0.00 0.00 0.00 0.00 0.00 0.00 0.00 0.00 0.00 0.00
0.01 0.02 0.02 0.02 0.03 0.06 0.07 0.02 0.00 0.00 0.00 0.00 0.00 0.00 0.00 0.00 0.00 0.00 0.00 0.00 0.00 0.00 0.00 0.00 0.00 0.00 0.00 0.00 0.00 0.00 0.00 0.00 0.00 0.00 0.00 0.00 0.00 0.00 0.00 0.00 0.00 0.00 0.00 0.00 0.00 0.00 0.00
0.01 0.02 0.02 0.02 0.02 0.13 0.08 0.05 0.00 0.01 0.00 0.00 0.00 0.00 0.00 0.00 0.00 0.00 0.00 0.00 0.00 0.00 0.00 0.00 0.00 0.00 0.00 0.00 0.00 0.00 0.00 0.00 0.00 0.00 0.00 0.00 0.00 0.00 0.00 0.00 0.00 0.00 0.00 0.00 0.00 0.00 0.00
0.01 0.03 0.04 0.02 0.04 0.04 0.17 0.06 0.01 0.00 0.01 0.00 0.00 0.00 0.00 0.00 0.00 0.00 0.00 0.00 0.00 0.00 0.00 0.00 0.00 0.00 0.00 0.00 0.00 0.00 0.00 0.00 0.00 0.00 0.00 0.00 0.00 0.00 0.00 0.00 0.00 0.00 0.00 0.00 0.00 0.00 0.00
0.01 0.02 0.05 0.04 0.04 0.04 0.10 0.14 0.04 0.01 0.01 0.00 0.00 0.00 0.00 0.00 0.00 0.00 0.00 0.00 0.00 0.00 0.00 0.00 0.00 0.00 0.00 0.00 0.00 0.00 0.00 0.00 0.00 0.00 0.00 0.00 0.00 0.00 0.00 0.00 0.00 0.00 0.00 0.00 0.00 0.00 0.00
0.01 0.02 0.05 0.06 0.05 0.05 0.06 0.18 0.10 0.02 0.01 0.00 0.00 0.00 0.00 0.00 0.00 0.00 0.00 0.00 0.00 0.00 0.00 0.00 0.00 0.00 0.00 0.00 0.00 0.00 0.00 0.00 0.00 0.00 0.00 0.00 0.00 0.00 0.00 0.00 0.00 0.00 0.00 0.00 0.00 0.00 0.00
0.01 0.01 0.05 0.07 0.05 0.05 0.07 0.15 0.13 0.05 0.02 0.01 0.00 0.00 0.00 0.00 0.00 0.00 0.00 0.00 0.00 0.00 0.00 0.00 0.00 0.00 0.00 0.00 0.00 0.00 0.00 0.00 0.00 0.00 0.00 0.00 0.00 0.00 0.00 0.00 0.00 0.00 0.00 0.00 0.00 0.00 0.00
0.01 0.01 0.03 0.07 0.06 0.06 0.07 0.13 0.12 0.06 0.03 0.02 0.00 0.00 0.00 0.00 0.00 0.00 0.00 0.00 0.00 0.00 0.00 0.00 0.00 0.00 0.00 0.00 0.00 0.00 0.00 0.00 0.00 0.00 0.00 0.00 0.00 0.00 0.00 0.00 0.00 0.00 0.00 0.00 0.00 0.00 0.00
0.01 0.01 0.03 0.06 0.08 0.09 0.08 0.13 0.17 0.11 0.06 0.03 0.00 0.00 0.00 0.00 0.00 0.00 0.00 0.00 0.00 0.00 0.00 0.00 0.00 0.00 0.00 0.00 0.00 0.00 0.00 0.00 0.00 0.00 0.00 0.00 0.00 0.00 0.00 0.00 0.00 0.00 0.00 0.00 0.00 0.00 0.00
0.01 0.01 0.03 0.05 0.10 0.11 0.10 0.12 0.21 0.14 0.09 0.06 0.00 0.00 0.00 0.00 0.00 0.00 0.00 0.00 0.00 0.00 0.00 0.00 0.00 0.00 0.00 0.00 0.00 0.00 0.00 0.00 0.00 0.00 0.00 0.00 0.00 0.00 0.00 0.00 0.00 0.00 0.00 0.00 0.00 0.00 0.00
0.01 0.00 0.02 0.08 0.14 0.13 0.10 0.08 0.29 0.18 0.05 0.10 0.02 0.00 0.00 0.00 0.00 0.00 0.00 0.00 0.00 0.00 0.00 0.00 0.00 0.00 0.00 0.00 0.00 0.00 0.00 0.00 0.00 0.00 0.00 0.00 0.00 0.00 0.00 0.00 0.00 0.00 0.00 0.00 0.00 0.00 0.00
0.02 0.01 0.02 0.09 0.19 0.15 0.11 0.04 0.29 0.23 0.06 0.12 0.04 0.00 0.00 0.00 0.00 0.00 0.00 0.00 0.00 0.00 0.00 0.00 0.00 0.00 0.00 0.00 0.00 0.00 0.00 0.00 0.00 0.00 0.00 0.00 0.00 0.00 0.00 0.00 0.00 0.00 0.00 0.00 0.00 0.00 0.00
0.02 0.02 0.03 0.07 0.18 0.19 0.14 0.05 0.20 0.38 0.10 0.16 0.04 0.00 0.00 0.00 0.00 0.00 0.00 0.00 0.00 0.00 0.00 0.00 0.00 0.00 0.00 0.00 0.00 0.00 0.00 0.00 0.00 0.00 0.00 0.00 0.00 0.00 0.00 0.00 0.00 0.00 0.00 0.00 0.00 0.00 0.00
0.02 0.02 0.03 0.11 0.17 0.22 0.15 0.10 0.16 0.45 0.15 0.16 0.04 0.00 0.00 0.00 0.00 0.00 0.00 0.00 0.00 0.00 0.00 0.00 0.00 0.00 0.00 0.00 0.00 0.00 0.00 0.00 0.00 0.00 0.00 0.00 0.00 0.00 0.00 0.00 0.00 0.00 0.00 0.00 0.00 0.00 0.00
0.04 0.02 0.04 0.18 0.24 0.22 0.16 0.14 0.16 0.31 0.16 0.15 0.03 0.01 0.00 0.00 0.00 0.00 0.00 0.00 0.00 0.00 0.00 0.00 0.00 0.00 0.00 0.00 0.00 0.00 0.00 0.00 0.00 0.00 0.00 0.00 0.00 0.00 0.00 0.00 0.00 0.00 0.00 0.00 0.00 0.00 0.00
0.05 0.03 0.07 0.19 0.39 0.23 0.18 0.14 0.14 0.23 0.19 0.15 0.08 0.00 0.00 0.00 0.00 0.00 0.00 0.00 0.00 0.00 0.00 0.00 0.00 0.00 0.00 0.00 0.00 0.00 0.00 0.00 0.00 0.00 0.00 0.00 0.00 0.00 0.00 0.00 0.00 0.00 0.00 0.00 0.00 0.00 0.00
0.04 0.04 0.09 0.24 0.48 0.29 0.15 0.10 0.17 0.18 0.14 0.14 0.08 0.00 0.00 0.00 0.00 0.00 0.00 0.00 0.00 0.00 0.00 0.00 0.00 0.00 0.00 0.00 0.00 0.00 0.00 0.00 0.00 0.00 0.00 0.00 0.00 0.00 0.00 0.00 0.00 0.00 0.00 0.00 0.00 0.00 0.00
0.03 0.08 0.14 0.28 0.60 0.38 0.09 0.05 0.24 0.17 0.08 0.04 0.03 0.01 0.00 0.00 0.00 0.00 0.00 0.00 0.00 0.00 0.00 0.00 0.00 0.00 0.00 0.00 0.00 0.00 0.00 0.00 0.00 0.00 0.00 0.00 0.00 0.00 0.00 0.00 0.00 0.00 0.00 0.00 0.00 0.00 0.00
0.04 0.10 0.21 0.25 0.64 0.35 0.06 0.03 0.33 0.20 0.03 0.01 0.00 0.00 0.00 0.00 0.00 0.00 0.00 0.00 0.00 0.00 0.00 0.00 0.00 0.00 0.00 0.00 0.00 0.00 0.00 0.00 0.00 0.00 0.00 0.00 0.00 0.00 0.00 0.00 0.00 0.00 0.00 0.00 0.00 0.00 0.00
0.04 0.10 0.29 0.31 0.65 0.26 0.04 0.04 0.34 0.21 0.02 0.01 0.00 0.00 0.00 0.00 0.00 0.00 0.00 0.00 0.00 0.00 0.00 0.00 0.00 0.00 0.00 0.00 0.00 0.00 0.00 0.00 0.00 0.00 0.00 0.00 0.00 0.00 0.00 0.00 0.00 0.00 0.00 0.00 0.00 0.00 0.00
0.04 0.11 0.30 0.38 0.62 0.16 0.03 0.07 0.29 0.26 0.03 0.00 0.00 0.00 0.00 0.00 0.00 0.00 0.00 0.00 0.00 0.00 0.00 0.00 0.00 0.00 0.00 0.00 0.00 0.00 0.00 0.00 0.00 0.00 0.00 0.00 0.00 0.00 0.00 0.00 0.00 0.00 0.00 0.00 0.00 0.00 0.00
0.05 0.20 0.27 0.40 0.45 0.11 0.02 0.11 0.28 0.27 0.04 0.00 0.00 0.00 0.00 0.00 0.00 0.00 0.00 0.00 0.00 0.00 0.00 0.00 0.00 0.00 0.00 0.00 0.00 0.00 0.00 0.00 0.00 0.00 0.00 0.00 0.00 0.00 0.00 0.00 0.00 0.00 0.00 0.00 0.00 0.00 0.00
0.10 0.31 0.27 0.33 0.38 0.09 0.03 0.15 0.35 0.29 0.04 0.00 0.00 0.00 0.00 0.00 0.00 0.00 0.00 0.00 0.00 0.00 0.00 0.00 0.00 0.00 0.00 0.00 0.00 0.00 0.00 0.00 0.00 0.00 0.00 0.00 0.00 0.00 0.00 0.00 0.00 0.00 0.00 0.00 0.00 0.00 0.00
0.18 0.40 0.26 0.23 0.34 0.07 0.08 0.22 0.37 0.23 0.03 0.00 0.00 0.00 0.00 0.00 0.00 0.00 0.00 0.00 0.00 0.00 0.00 0.00 0.00 0.00 0.00 0.00 0.00 0.00 0.00 0.00 0.00 0.00 0.00 0.00 0.00 0.00 0.00 0.00 0.00 0.00 0.00 0.00 0.00 0.00 0.00
0.25 0.41 0.24 0.19 0.31 0.07 0.11 0.20 0.32 0.20 0.02 0.02 0.01 0.00 0.00 0.00 0.00 0.00 0.00 0.00 0.00 0.00 0.00 0.00 0.00 0.00 0.00 0.00 0.00 0.00 0.00 0.00 0.00 0.00 0.00 0.00 0.00 0.00 0.00 0.00 0.00 0.00 0.00 0.00 0.00 0.00 0.00
0.33 0.39 0.19 0.13 0.24 0.09 0.10 0.18 0.29 0.15 0.03 0.02 0.03 0.00 0.00 0.00 0.00 0.00 0.00 0.00 0.00 0.00 0.00 0.00 0.00 0.00 0.00 0.00 0.00 0.00 0.00 0.00 0.00 0.00 0.00 0.00 0.00 0.00 0.00 0.00 0.00 0.00 0.00 0.00 0.00 0.00 0.00
0.37 0.26 0.15 0.11 0.15 0.07 0.11 0.19 0.18 0.11 0.03 0.02 0.06 0.00 0.00 0.00 0.00 0.00 0.00 0.00 0.00 0.00 0.00 0.00 0.00 0.00 0.00 0.00 0.00 0.00 0.00 0.00 0.00 0.00 0.00 0.00 0.00 0.00 0.00 0.00 0.00 0.00 0.00 0.00 0.00 0.00 0.00
MSLP
1016.11 1015.83 1015.66 1015.67 1016.13 1016.61 1017.22 1017.49 1018.16 1018.96 1019.53 1020.10 1020.57 1020.81 1021.35 1020.97 1021.78 1021.89 1022.12 1022.15 1022.03 1021.78 1021.64 1021.40 1021.05 1020.52 1019.98 1019.77 1021.11 1021.31 1021.38 1020.57 1019.76 1019.31 1018.56 1017.97 1017.35 1017.20 1017.34 1018.04 1018.72 1019.95 1021.54 1022.64 1023.53 1024.02 1024.69
1015.87 1015.59 1015.40 1015.41 1015.62 1016.04 1016.66 1017.14 1017.64 1018.39 1019.16 1019.73 1020.21 1020.89 1020.91 1021.23 1021.24 1021.93 1022.15 1022.19 1022.14 1021.85 1021.74 1021.34 1021.00 1020.31 1019.69 1020.61 1021.81 1021.41 1021.17 1020.39 1019.98 1019.45 1019.07 1018.61 1018.57 1018.25 1018.66 1019.01 1019.28 1020.81 1022.03 1023.27 1024.07 1024.49 1025.10
1015.61 1015.39 1015.08 1014.95 1015.17 1015.56 1016.04 1016.69 1017.21 1017.89 1018.60 1019.29 1019.75 1020.72 1021.02 1021.16 1021.41 1021.74 1022.21 1021.99 1022.21 1021.79 1021.72 1021.59 1021.09 1019.99 1020.42 1022.03 1022.06 1021.37 1021.04 1020.83 1020.43 1020.01 1019.59 1019.84 1019.35 1018.82 1019.29 1020.03 1020.94 1021.64 1021.95 1023.17 1024.30 1024.77 1025.39
1015.11 1014.87 1014.65 1014.64 1014.80 1015.06 1015.42 1016.10 1016.70 1017.45 1018.10 1018.85 1019.85 1020.42 1020.79 1021.20 1021.42 1021.61 1022.14 1022.13 1022.29 1021.85 1021.94 1021.59 1021.19 1020.16 1021.40 1022.29 1022.06 1021.60 1021.09 1020.68 1020.70 1020.51 1020.41 1020.44 1020.03 1019.81 1019.95 1020.79 1021.10 1021.22 1021.50 1021.77 1024.79 1024.73 1025.55
1014.53 1014.68 1014.39 1014.27 1014.33 1014.46 1014.86 1015.46 1016.17 1016.92 1017.73 1018.32 1019.39 1020.14 1020.64 1021.05 1021.40 1021.78 1021.97 1022.18 1022.09 1021.84 1021.89 1021.41 1020.97 1020.32 1021.77 1022.30 1022.04 1022.02 1021.86 1021.19 1021.02 1020.91 1020.96 1020.72 1020.44 1020.37 1020.77 1020.43 1020.72 1021.19 1021.09 1022.58 1024.45 1025.38 1025.34
1013.95 1014.23 1014.19 1014.02 1013.70 1013.92 1014.31 1014.69 1015.59 1016.35 1017.14 1017.93 1018.96 1019.81 1020.45 1020.95 1021.33 1021.60 1022.01 1021.96 1022.12 1021.79 1021.40 1021.14 1021.07 1020.89 1022.26 1022.57 1022.55 1022.33 1022.15 1021.76 1021.33 1021.09 1020.83 1020.87 1020.53 1020.59 1020.93 1020.59 1020.58 1021.53 1022.18 1023.49 1024.69 1026.27 1026.19
1012.71 1013.12 1013.76 1013.39 1013.38 1013.31 1013.67 1014.44 1014.87 1015.78 1016.44 1017.47 1018.47 1019.35 1020.15 1020.93 1021.23 1021.70 1021.92 1021.85 1022.04 1021.36 1021.35 1021.72 1021.87 1021.75 1022.43 1022.69 1022.56 1022.45 1022.51 1021.95 1021.46 1021.37 1021.22 1021.23 1021.26 1022.16 1022.82 1022.86 1022.93 1023.18 1023.50 1024.50 1025.95 1027.20 1027.28
1012.33 1012.49 1012.66 1012.88 1013.20 1012.79 1013.12 1013.81 1014.41 1015.19 1015.91 1016.92 1017.99 1019.08 1020.00 1020.65 1021.27 1021.71 1021.55 1021.10 1020.79 1020.73 1021.93 1022.59 1022.58 1022.69 1023.02 1022.87 1022.61 1022.89 1022.31 1022.11 1021.70 1021.76 1022.24 1022.28 1022.98 1024.03 1024.16 1024.06 1024.05 1024.09 1024.44 1025.56 1026.68 1027.50 1027.45
1011.81 1011.97 1012.21 1012.62 1012.67 1012.41 1012.36 1013.05 1013.54 1014.53 1015.37 1016.36 1017.56 1018.92 1019.70 1020.73 1021.46 1021.83 1021.38 1021.04 1021.13 1021.00 1021.55 1023.15 1023.20 1023.00 1023.22 1023.13 1023.62 1023.89 1023.73 1023.27 1022.68 1022.62 1023.05 1023.40 1025.11 1025.14 1024.89 1024.84 1024.74 1025.25 1025.83 1026.29 1026.43 1027.71 1027.84
1010.57 1010.82 1011.31 1012.29 1012.37 1012.23 1011.69 1012.23 1013.02 1013.91 1014.98 1015.91 1017.37 1018.39 1019.72 1020.57 1021.63 1021.10 1021.03 1021.13 1021.30 1021.46 1021.86 1023.42 1023.22 1023.53 1023.60 1023.41 1024.19 1024.95 1025.11 1024.50 1024.10 1024.14 1024.34 1024.79 1025.72 1025.57 1025.58 1025.88 1025.75 1025.67 1027.06 1027.03 1026.82 1026.95 1027.03
1009.90 1010.59 1010.78 1011.25 1011.38 1011.91 1011.28 1011.79 1012.37 1013.23 1014.66 1015.42 1016.92 1018.10 1019.14 1019.42 1019.65 1020.29 1020.19 1021.00 1021.41 1021.54 1022.23 1023.76 1023.49 1024.01 1023.77 1023.76 1024.62 1025.11 1025.63 1024.57 1024.39 1024.62 1024.78 1026.32 1026.47 1026.23 1026.44 1027.01 1026.76 1027.26 1027.48 1026.85 1027.07 1027.23 1027.81
1009.07 1009.12 1010.08 1010.08 1010.64 1011.01 1011.11 1010.68 1011.84 1012.56 1013.99 1015.10 1016.53 1017.49 1019.00 1019.56 1019.59 1020.10 1020.67 1021.00 1021.23 1021.75 1022.27 1023.39 1023.59 1023.59 1023.95 1024.35 1024.99 1025.34 1025.30 1025.38 1025.51 1024.99 1025.75 1026.56 1027.47 1027.56 1027.65 1027.70 1027.41 1027.73 1027.30 1027.21 1027.34 1027.59 1027.87
1007.94 1008.17 1008.73 1009.40 1010.30 1010.73 1011.01 1010.11 1011.51 1012.13 1013.43 1014.77 1016.21 1017.33 1018.60 1018.70 1018.90 1020.08 1020.70 1020.67 1021.03 1021.12 1022.54 1023.09 1023.16 1023.63 1024.21 1024.77 1025.42 1025.88 1026.01 1025.97 1025.81 1026.11 1026.34 1026.93 1027.61 1028.22 1028.43 1027.55 1027.15 1027.50 1027.15 1027.52 1027.67 1027.82 1028.43
1007.38 1007.62 1007.89 1008.82 1009.14 1009.49 1009.93 1009.44 1010.75 1011.45 1012.73 1014.38 1015.95 1017.41 1019.22 1019.35 1019.71 1020.17 1020.28 1020.35 1020.20 1020.73 1021.30 1022.40 1022.89 1023.79 1024.19 1024.95 1025.99 1026.42 1026.39 1026.53 1027.48 1027.19 1027.48 1027.75 1028.20 1028.78 1029.04 1028.88 1028.47 1028.28 1027.95 1028.35 1028.28 1028.47 1028.63
1006.09 1006.53 1006.85 1007.31 1008.07 1008.79 1009.82 1008.73 1010.04 1010.91 1012.25 1014.19 1015.59 1017.89 1019.05 1020.09 1020.27 1020.00 1019.84 1020.21 1019.38 1019.77 1020.77 1021.69 1022.93 1023.25 1024.31 1025.26 1025.69 1026.42 1026.79 1027.19 1028.16 1028.99 1029.09 1029.49 1029.87 1030.05 1029.91 1029.74 1029.95 1028.79 1028.94 1029.99 1029.87 1030.23 1029.85
1004.49 1005.66 1006.16 1006.30 1007.20 1008.04 1009.00 1008.13 1009.59 1010.07 1011.53 1013.16 1014.98 1017.27 1019.36 1020.50 1020.30 1019.67 1020.12 1020.00 1019.95 1020.24 1020.39 1021.15 1021.54 1022.83 1023.55 1024.74 1025.56 1026.39 1026.85 1028.04 1028.61 1029.16 1029.47 1030.07 1030.44 1030.55 1030.22 1030.19 1030.17 1029.73 1030.49 1030.51 1030.64 1030.73 1030.13
1003.61 1003.88 1004.93 1005.41 1006.21 1007.09 1008.06 1007.21 1008.78 1009.77 1010.91 1012.25 1014.47 1017.79 1020.29 1020.58 1020.09 1020.02 1019.88 1019.88 1020.12 1020.45 1020.57 1021.11 1021.73 1022.63 1023.42 1024.55 1025.22 1025.94 1026.85 1028.08 1028.50 1029.18 1029.43 1029.83 1029.93 1030.49 1030.39 1030.16 1030.73 1030.77 1030.99 1031.96 1032.43 1032.69 1031.82
1002.30 1003.20 1004.78 1005.44 1005.35 1006.05 1006.64 1006.45 1008.06 1009.01 1009.99 1011.60 1013.95 1017.78 1020.37 1020.55 1019.88 1019.96 1019.60 1019.63 1020.06 1020.66 1021.10 1021.28 1021.67 1022.41 1023.48 1024.45 1025.37 1025.81 1026.39 1027.04 1028.25 1028.52 1028.77 1029.33 1029.85 1029.45 1030.20 1030.70 1030.91 1030.89 1031.75 1032.03 1032.37 1033.01 1032.97
1000.68 1001.63 1002.46 1003.93 1004.66 1005.64 1004.69 1005.51 1007.03 1008.52 1009.07 1010.81 1014.44 1018.83 1020.67 1020.75 1019.09 1019.05 1019.51 1019.83 1020.21 1020.46 1020.51 1021.17 1021.86 1022.51 1023.57 1024.35 1025.34 1025.98 1026.58 1027.80 1028.21 1028.21 1028.56 1029.10 1029.61 1029.77 1030.05 1030.73 1030.75 1030.64 1031.51 1032.29 1032.86 1032.70 1032.65
999.02 1000.37 1001.78 1002.81 1003.67 1004.52 1003.28 1004.71 1006.18 1007.49 1008.67 1009.73 1014.13 1018.07 1020.41 1020.21 1018.17 1017.66 1018.07 1019.25 1019.93 1020.55 1020.81 1021.21 1022.18 1022.74 1023.45 1024.37 1025.16 1025.63 1026.62 1027.70 1028.17 1028.20 1028.95 1029.04 1029.20 1029.01 1028.47 1028.42 1029.02 1030.28 1030.86 1031.80 1032.21 1032.23 1032.13
997.70 999.22 1000.25 1001.41 1002.41 1003.08 1002.34 1004.03 1005.33 1006.53 1007.23 1008.54 1012.27 1014.82 1016.37 1017.50 1017.33 1017.07 1017.56 1018.59 1018.96 1019.97 1020.76 1021.19 1021.94 1022.07 1022.76 1024.27 1024.68 1025.18 1026.18 1027.22 1027.97 1028.65 1028.67 1028.67 1028.72 1028.56 1028.51 1028.70 1028.93 1029.38 1029.69 1030.78 1031.49 1031.34 1031.42
998.42 998.74 999.67 1000.91 1001.39 1001.67 1002.05 1003.74 1004.23 1005.81 1006.87 1009.05 1010.79 1012.31 1015.07 1015.81 1016.37 1016.59 1017.63 1017.85 1018.17 1019.61 1020.09 1020.67 1020.92 1021.89 1022.77 1023.35 1023.56 1024.46 1025.33 1025.98 1026.44 1027.93 1028.15 1028.48 1028.13 1028.33 1028.37 1028.61 1028.65 1028.55 1028.68 1029.24 1029.96 1030.55 1030.66
996.56 998.15 999.32 1000.38 1000.55 1000.07 1001.32 1003.03 1003.99 1005.75 1007.04 1008.31 1010.52 1011.03 1012.47 1014.36 1015.38 1015.78 1016.24 1016.94 1017.78 1019.13 1020.67 1020.29 1020.72 1021.95 1022.82 1022.83 1023.41 1024.12 1025.02 1025.57 1026.04 1026.86 1027.48 1027.86 1027.94 1028.21 1027.75 1028.23 1028.43 1027.92 1027.35 1027.57 1028.22 1028.59 1028.80
996.11 997.89 999.21 999.67 998.57 999.51 1001.35 1003.15 1004.44 1006.00 1007.06 1008.14 1009.27 1009.53 1011.85 1013.96 1014.42 1014.66 1015.83 1016.94 1017.78 1018.53 1019.74 1020.90 1021.44 1021.95 1023.68 1023.85 1024.27 1025.13 1025.83 1026.37 1026.72 1026.95 1027.33 1027.65 1027.80 1028.23 1027.68 1028.00 1027.35 1026.19 1026.23 1026.67 1026.83 1026.92 1027.21
995.39 996.27 997.35 997.97 998.60 999.25 1001.29 1003.25 1004.88 1006.22 1007.35 1007.43 1009.01 1008.89 1011.27 1013.35 1014.01 1015.27 1015.95 1016.71 1018.41 1019.60 1020.23 1021.11 1022.04 1022.37 1023.33 1023.45 1024.30 1025.29 1026.30 1026.71 1026.69 1026.95 1027.42 1027.56 1027.75 1027.90 1027.74 1026.74 1025.43 1025.42 1025.62 1026.01 1025.97 1025.34 1025.40
993.79 995.66 997.00 997.32 998.45 999.79 1001.69 1003.58 1005.23 1007.24 1006.91 1008.27 1009.58 1009.69 1011.08 1012.60 1013.64 1014.54 1015.40 1016.81 1017.71 1019.03 1021.00 1022.39 1023.06 1023.30 1023.11 1023.22 1023.99 1024.22 1024.69 1024.90 1025.86 1026.73 1027.50 1027.82 1028.00 1028.05 1027.83 1026.70 1024.60 1023.67 1024.39 1025.13 1025.56 1024.50 1024.41
994.83 996.32 996.48 997.68 998.71 1000.27 1002.12 1003.96 1005.42 1006.51 1007.61 1007.80 1009.79 1010.39 1010.83 1012.74 1013.68 1014.09 1014.74 1015.83 1016.99 1018.41 1020.17 1022.23 1023.26 1023.92 1023.81 1023.43 1023.76 1023.84 1024.08 1024.34 1024.87 1025.44 1026.44 1027.10 1027.49 1027.56 1027.32 1026.50 1024.26 1023.47 1024.34 1025.21 1024.85 1023.53 1023.65
994.95 995.85 996.85 997.81 998.94 1000.65 1002.49 1004.13 1005.55 1006.88 1006.79 1007.03 1010.71 1010.73 1010.73 1013.30 1015.20 1015.32 1015.59 1015.98 1016.80 1017.74 1018.89 1021.45 1022.74 1023.37 1023.41 1023.55 1023.56 1023.69 1023.61 1024.21 1024.27 1024.16 1024.69 1025.17 1025.80 1026.09 1026.36 1025.89 1023.97 1023.25 1024.41 1024.03 1022.79 1023.04 1023.31
994.66 995.54 996.98 998.09 999.51 1001.29 1002.89 1004.63 1006.45 1006.87 1007.25 1007.45 1010.25 1011.59 1011.84 1012.93 1015.24 1016.38 1016.29 1016.58 1016.53 1016.85 1018.09 1020.63 1020.54 1021.35 1022.41 1022.82 1023.51 1023.39 1023.47 1023.94 1023.45 1023.37 1024.07 1023.99 1023.57 1023.85 1023.89 1023.04 1022.78 1022.89 1022.02 1022.62 1022.55 1022.70 1023.25
Thickness
5566 5579 5590 5599 5603 5608 5612 5617 5618 5618 5620 5622 5622 5624 5625 5634 5632 5634 5636 5638 5641 5647 5652 5654 5659 5664 5669 5663 5652 5660 5663 5668 5674 5678 5679 5679 5679 5677 5667 5662 5657 5638 5624 5616 5609 5604 5597
5551 5565 5577 5587 5595 5602 5605 5610 5614 5615 5615 5618 5617 5618 5624 5627 5629 5626 5628 5631 5635 5640 5644 5648 5653 5659 5663 5646 5647 5652 5655 5662 5665 5668 5667 5669 5663 5666 5652 5646 5642 5629 5615 5603 5597 5592 5585
5535 5549 5564 5577 5586 5594 5599 5603 5608 5610 5612 5613 5613 5611 5618 5621 5622 5622 5623 5627 5628 5635 5638 5640 5645 5654 5646 5631 5639 5646 5649 5651 5655 5657 5655 5653 5655 5652 5646 5629 5626 5615 5606 5598 5587 5582 5573
5520 5536 5551 5564 5575 5585 5592 5598 5602 5604 5607 5608 5608 5611 5614 5616 5618 5619 5618 5622 5621 5629 5631 5635 5640 5647 5628 5632 5634 5638 5644 5647 5648 5648 5646 5644 5646 5640 5634 5625 5616 5610 5608 5602 5573 5575 5565
5504 5518 5537 5552 5565 5577 5585 5592 5595 5599 5601 5605 5604 5605 5609 5610 5613 5614 5617 5618 5620 5625 5628 5632 5636 5640 5621 5629 5630 5632 5634 5635 5638 5639 5637 5637 5635 5627 5622 5617 5609 5604 5600 5586 5567 5562 5559
5488 5503 5521 5538 5556 5568 5577 5586 5589 5594 5597 5601 5600 5601 5603 5605 5608 5611 5611 5614 5616 5622 5627 5629 5631 5629 5620 5615 5622 5625 5627 5628 5627 5629 5628 5624 5626 5618 5613 5612 5602 5589 5586 5575 5561 5546 5545
5479 5494 5506 5527 5544 5559 5571 5577 5586 5589 5595 5596 5597 5597 5599 5599 5603 5605 5607 5611 5612 5617 5620 5615 5614 5617 5614 5617 5621 5619 5619 5621 5622 5619 5611 5617 5608 5589 5584 5585 5583 5578 5573 5559 5547 5534 5529
5460 5479 5497 5515 5531 5549 5562 5571 5579 5585 5590 5592 5593 5592 5593 5595 5597 5598 5603 5610 5616 5621 5602 5607 5609 5609 5608 5611 5610 5608 5617 5612 5614 5604 5603 5600 5583 5578 5577 5575 5572 5570 5562 5547 5536 5525 5524
5441 5464 5484 5501 5520 5540 5556 5567 5578 5581 5585 5588 5588 5586 5588 5587 5588 5591 5600 5606 5609 5612 5604 5594 5600 5601 5601 5605 5594 5595 5600 5600 5601 5597 5593 5584 5567 5567 5567 5564 5563 5555 5543 5535 5534 5516 5512
5429 5456 5475 5487 5508 5528 5550 5563 5571 5576 5579 5583 5581 5583 5581 5582 5580 5590 5595 5599 5603 5604 5596 5585 5592 5593 5594 5597 5586 5585 5584 5588 5584 5579 5579 5571 5565 5562 5559 5551 5552 5550 5531 5526 5524 5521 5516
5416 5438 5462 5481 5502 5517 5542 5557 5565 5573 5574 5579 5577 5578 5580 5584 5591 5591 5598 5594 5596 5600 5593 5578 5584 5588 5589 5589 5582 5578 5577 5583 5578 5573 5575 5553 5552 5553 5549 5538 5541 5530 5526 5528 5522 5516 5504
5406 5433 5452 5477 5495 5513 5531 5553 5560 5571 5572 5574 5573 5576 5573 5577 5584 5585 5585 5587 5592 5585 5579 5571 5578 5579 5578 5578 5573 5574 5574 5575 5572 5571 5564 5552 5547 5541 5538 5535 5533 5527 5529 5526 5521 5513 5497
5400 5424 5448 5467 5485 5502 5524 5548 5553 5565 5568 5568 5569 5570 5569 5576 5586 5579 5578 5584 5573 5583 5574 5568 5574 5575 5574 5569 5564 5563 5560 5561 5564 5557 5557 5554 5544 5538 5532 5538 5541 5532 5531 5513 5510 5505 5496
5389 5412 5440 5458 5482 5501 5521 5544 5551 5560 5565 5565 5562 5562 5558 5567 5569 5572 5577 5578 5581 5577 5584 5576 5575 5571 5570 5566 5555 5553 5557 5556 5545 5552 5551 5546 5542 5532 5526 5521 5523 5518 5523 5512 5508 5507 5506
5387 5407 5433 5459 5479 5494 5509 5540 5548 5558 5561 5559 5557 5549 5553 5552 5559 5569 5577 5563 5575 5586 5584 5575 5569 5571 5561 5556 5558 5553 5551 5549 5533 5511 5538 5522 5523 5519 5516 5516 5510 5519 5514 5501 5487 5484 5489
5388 5404 5427 5455 5475 5492 5505 5533 5544 5556 5557 5556 5551 5549 5544 5543 5553 5567 5561 5559 5574 5580 5583 5579 5577 5572 5567 5559 5556 5546 5545 5533 5525 5525 5523 5511 5510 5512 5515 5513 5510 5513 5502 5507 5500 5498 5496
5383 5407 5426 5451 5472 5489 5504 5531 5541 5548 5550 5554 5549 5538 5527 5534 5548 5559 5551 5565 5571 5574 5578 5575 5568 5561 5566 5555 5555 5549 5541 5530 5528 5522 5525 5510 5513 5515 5513 5511 5491 5498 5490 5466 5465 5457 5485
5387 5405 5421 5444 5470 5490 5505 5529 5538 5549 5551 5551 5545 5533 5521 5527 5549 5543 5554 5567 5568 5565 5567 5568 5570 5566 5561 5552 5546 5544 5541 5539 5529 5528 5531 5525 5516 5525 5510 5505 5502 5501 5471 5478 5492 5469 5446
5394 5410 5432 5449 5470 5484 5511 5528 5540 5538 5548 5547 5532 5507 5511 5520 5536 5550 5555 5555 5561 5563 5568 5567 5562 5562 5555 5549 5536 5538 5535 5527 5525 5529 5527 5523 5514 5510 5512 5506 5501 5504 5487 5465 5446 5455 5464
5399 5417 5430 5449 5471 5487 5519 5529 5536 5543 5546 5553 5525 5500 5501 5515 5556 5567 5566 5559 5556 5558 5560 5562 5555 5556 5551 5544 5541 5536 5530 5523 5522 5526 5515 5520 5512 5509 5534 5525 5518 5485 5492 5477 5470 5479 5467
5405 5419 5436 5451 5468 5485 5520 5527 5534 5540 5553 5555 5541 5525 5535 5523 5546 5564 5565 5560 5560 5556 5558 5560 5552 5559 5555 5530 5539 5537 5531 5523 5521 5514 5520 5520 5508 5519 5520 5517 5513 5506 5506 5485 5460 5476 5473
5397 5421 5442 5456 5474 5494 5517 5523 5532 5540 5551 5542 5540 5551 5537 5548 5556 5563 5551 5558 5565 5554 5559 5557 5560 5556 5549 5533 5544 5533 5533 5533 5532 5520 5520 5518 5521 5518 5515 5512 5511 5510 5511 5503 5489 5469 5455
5412 5424 5444 5460 5480 5503 5515 5524 5538 5535 5544 5546 5546 5562 5562 5556 5558 5562 5563 5566 5568 5557 5545 5561 5561 5549 5541 5549 5546 5542 5538 5536 5534 5526 5521 5519 5519 5514 5521 5512 5501 5501 5503 5512 5501 5491 5482
5416 5424 5437 5457 5487 5504 5512 5519 5528 5534 5545 5550 5557 5570 5554 5552 5561 5570 5565 5561 5559 5562 5551 5548 5550 5548 5533 5536 5535 5530 5526 5523 5522 5523 5523 5516 5517 5512 5518 5510 5506 5520 5520 5513 5508 5503 5494
5424 5440 5457 5473 5487 5506 5511 5518 5526 5532 5538 5553 5555 5572 5561 5553 5562 5554 5555 5557 5547 5544 5545 5544 5541 5541 5535 5538 5529 5521 5515 5514 5518 5520 5516 5518 5516 5511 5509 5523 5535 5525 5516 5506 5504 5510 5507
5447 5450 5464 5482 5490 5501 5508 5513 5518 5517 5538 5542 5550 5565 5563 5556 5558 5560 5558 5552 5549 5545 5534 5524 5526 5530 5535 5535 5527 5526 5526 5531 5521 5514 5511 5510 5510 5507 5502 5511 5528 5539 5527 5515 5506 5509 5510
5437 5446 5471 5481 5488 5498 5504 5507 5514 5522 5530 5547 5543 5551 5562 5551 5556 5562 5559 5558 5557 5549 5538 5522 5518 5519 5524 5528 5525 5528 5529 5534 5525 5521 5509 5509 5507 5495 5500 5502 5528 5536 5521 5509 5499 5518 5511
5444 5457 5468 5476 5488 5498 5504 5506 5510 5518 5536 5551 5534 5548 5562 5545 5538 5546 5550 5551 5552 5549 5541 5527 5521 5519 5523 5521 5526 5525 5532 5524 5526 5534 5526 5523 5517 5507 5509 5498 5511 5531 5513 5511 5523 5516 5510
5452 5464 5470 5482 5489 5494 5499 5503 5505 5519 5533 5546 5536 5537 5546 5549 5540 5535 5543 5546 5550 5551 5545 5528 5537 5533 5523 5523 5515 5523 5523 5516 5530 5530 5529 5527 5537 5531 5529 5532 5534 5528 5533 5523 5522 5515 5504